Regional Weather Roundup
Issued by NWS State College, PA

Home | Current Version | Previous Version | Text Only | Print | Product List | Glossary On
Versions: 1 2 3 4 5 6 7 8 9 10 11 12 13 14 15 16 17 18 19 20 21 22 23 24 25 26 27 28 29 30 31 32 33 34 35 36 37 38 39 40 41 42 43 44 45 46 47 48 49 50
000
ASUS41 KCTP 210310
RWRCTP

REGIONAL WEATHER ROUNDUP
NATIONAL WEATHER SERVICE STATE COLLEGE PA
1000 PM EST MON NOV 20 2017

Note: "fair" indicates few or no clouds below 12,000 feet with no
significant weather and/or obstructions to visibility.

* = STATION THAT DOES NOT REPORT PRECIPITATION /E.G. RAIN...SNOW...ETC/
    THUNDER OR FOG.

PAZ002>004-007>009-013>016-020>023-029>032-210400-
WESTERN PENNSYLVANIA

CITY           SKY/WX    TMP DP  RH WIND       PRES   REMARKS
ERIE           CLEAR     40  23  50 S24G32    29.92F
MEADVILLE      CLEAR     35  23  61 S13G23    29.97F
FRANKLIN*      CLEAR     33  22  63 S14       30.00F
NEW CASTLE     FAIR      37  22  54 VRB3      30.02F
BEAVER COUNTY  NOT AVBL
BUTLER*        CLOUDY    36  21  54 S8        30.04F
PITTSBURGH INT CLOUDY    37  21  52 S6        30.03F
PITTSBURGH     CLEAR     36  20  52 S10       30.04F
INDIANA*       CLEAR     34  23  64 SW5       30.09F
LATROBE        CLEAR     36  23  60 SW7       30.07F
WASHINGTON CO* CLEAR     36  21  54 S6        30.08F
$$

PAZ004>006-010>012-017>019-024>028-033>037-041-042-045-046-049>053-210400-
CENTRAL PENNSYLVANIA

CITY           SKY/WX    TMP DP  RH WIND       PRES   REMARKS
BRADFORD       CLEAR     33  23  66 SW12G20   29.97F
DUBOIS         CLEAR     34  21  59 SW9       30.02S
CLEARFIELD     CLEAR     32  25  75 SW6       30.05F
JOHNSTOWN      CLEAR     35  20  54 SW10      30.04F
ALTOONA        CLEAR     41  22  46 S13       30.08S
STATE COLLEGE  CLEAR     34  23  64 W6        30.06F
WILLIAMSPORT   CLEAR     32  26  78 N3        30.08S
SELINSGROVE    CLEAR     30  26  85 CALM      30.11R
FT INDIANTOWN  CLEAR     30  25  82 CALM      30.13R
CAPITAL CITY   CLEAR     35  24  64 CALM      30.13S
HARRISBURG     CLEAR     42  24  49 SW9       30.13R
YORK           CLEAR     38  23  55 CALM      30.13S
$$

PAZ038>040-043-044-047-048-054-055-060>062-067>071-210400-
EASTERN PENNSYLVANIA

CITY           SKY/WX    TMP DP  RH WIND       PRES   REMARKS
SCRANTON       CLEAR     38  24  57 SW7       30.06R
MOUNT POCONO   CLEAR     32  22  66 W7        30.05R
ALLENTOWN      CLEAR     39  23  52 SW3       30.12R
QUAKERTOWN*    CLEAR     30  25  80 CALM      30.13S
READING        CLEAR     40  25  55 S3        30.13S
LANCASTER      CLEAR     35  25  66 CALM      30.14S
COATESVILLE    CLEAR     39  21  48 VRB6      30.15S
POTTSTOWN      CLEAR     39  21  48 S7        30.15S
BLUE BELL      CLEAR     34  25  69 CALM      30.17R
DOYLESTOWN     CLEAR     37  22  54 S3        30.13R
WILLOW GROVE   NOT AVBL
NORTH PHILA    CLEAR     42  27  55 SW5       30.17R
PHILADELPHIA   CLEAR     41  27  57 S8        30.17R
$$




USA.gov is the U.S. government's official web portal to all federal, state and local government web resources and services.